www.pogodaiklimat.ru

Погода и климат >> Архив погоды >> Буркина-Фасо >> Ouahigouya


ПОГОДА в Ouahigouya

  • Прогноз погоды в Ouahigouya
  • Монитор погоды в Ouahigouya
  • Климат города

АРХИВ ПОГОДЫ в Ouahigouya

Время (UTC), дата Ветер
(напр.,м/с)
 
Видим.   Явления Облачность Т
(С)
Тd
(С)
f
(%)
Тe
(С)
Тes
(С)
Комфортность P
(гПа)
Po
(гПа)
Тmin
(С)
Tmax
(С)
R
(мм)
R24
(мм)
S
(см)
06 17.05 ЮЗ 4 15 км {гроза, дождь} 10/0
[Ac As]
+24.7 +18.2 67 +29 +29 душно 1006.3 969.6 +22.4 41
09 17.05 З 2 15 км 9/0
[Ac As Ci sp]
+26.5 +19.0 63 +32 +36 очень
душно
1009.4 972.0
12 17.05 штиль 0 15 км {гроза, дождь} 10/0
[Ac As]
+28.5 +20.0 60 +35 +45 очень
душно
1009.8 972.3 0.1
15 17.05 ЮЗ 1 15 км 10/0
[Ac As]
+30.0 +21.2 59 +38 +43 очень
душно
1006.5 969.3
21 17.05 ЮЗ 3 10 км 9/0
[Ac As Ci sp]
+28.1 +22.9 73 +37 +37 очень
душно
1008.1 970.8
00 18.05 Ю 1 10 км 9/0
[Ac As Ci sp]
+27.2 +22.9 77 +36 +36 очень
душно
1008.2 971.0
03 18.05 ЮЗ 2 10 км 9/0
[Ci sp]
+26.1 +22.5 81 +34 +34 очень
душно
1006.7 969.5
06 18.05 ЮЗ 1 15 км 9/0
[Ac As Cs]
+25.2 +22.0 82 +32 +32 очень
душно
1007.6 970.4 0.1
09 18.05 ЮЗ 4 15 км 9/0
[Ci sp]
+30.0 +21.2 59 +38 +43 очень
душно
1009.2 972.1
12 18.05 ЮЗ 5 15 км 9/1 600 м
[Sc Ac trans Ci sp]
+34.5 +19.8 42 +40 +46 очень
душно
1007.7 970.8
15 18.05 ЮЗ 3 15 км 9/1 600 м
[Sc Ac trans Ci sp]
+36.2 +18.8 36 +41 +46 опасность
перегрева
1005.9 969.1
18 18.05 ЮЗ 1 15 км 9/3 600 м
[Cb cap Ac trans Ci sp]
+34.5 +18.9 40 +39 +40 очень
душно
1006.0 969.1 +36.9
21 18.05 ЮВ 4 10 км 9/0
[Ac As Ci sp]
+28.0 +19.8 61 +34 +34 очень
душно
1009.0 971.9
03 19.05 ЮЗ 4 10 км 9/0
[Ac As Ci sp]
+26.4 +20.4 70 +33 +33 очень
душно
1007.7 970.9
06 19.05 ЮЗ 1 15 км 9/0
[Ac As Ci sp]
+25.1 +21.3 79 +32 +32 очень
душно
1009.1 972.1 +25.1
09 19.05 Ю 2 15 км 9/0
[Ac As Ci sp]
+28.6 +20.0 60 +35 +39 очень
душно
1011.6 974.3
12 19.05 Ю 2 15 км 9/0
[Ac trans Ci sp]
+33.3 +17.8 40 +37 +50 очень
душно
1009.9 972.9
15 19.05 Ю 2 15 км 9/1
[Sc Ac trans Ci sp]
+36.4 +17.9 34 +40 +46 очень
душно
1007.4 970.6
18 19.05 Ю 2 15 км 9/1 600 м
[Cb cap Ac trans Ci sp]
+35.4 +18.7 37 +40 +40 очень
душно
1008.0 971.1 +37.0
21 19.05 Ю 2 10 км зарница {дождь} 9/1 1200 м
[Cb cap Ac As Ci sp]
+26.7 +20.4 68 +33 +33 очень
душно
1011.6 974.2
00 20.05 Ю 2 10 км {дождь} 9/0
[Ac As Ci sp]
+26.6 +21.3 73 +34 +34 очень
душно
1011.3 974.2 15
03 20.05 ЮВ 1 10 км 9/0
[Ac As Ci sp]
+26.0 +20.2 70 +32 +32 очень
душно
1009.4 972.5
06 20.05 ЮВ 1 15 км 10/0
[Ac As]
+26.2 +22.6 81 +35 +35 очень
душно
1010.7 973.7 +24.0 15
09 20.05 ЮВ 1 15 км 10/0
[Ac As]
+28.1 +20.7 64 +35 +39 очень
душно
1012.8 975.3
12 20.05 ЮЗ 1 15 км 9/0
[Ac As Ci sp]
+33.8 +19.2 42 +39 +50 очень
душно
1011.3 974.2
15 20.05 штиль 0 15 км 9/0
[Ac As Ci sp]
+35.8 +18.1 35 +40 +50 очень
душно
1008.8 971.9
18 20.05 ЮЗ 2 15 км 9/0
[Ac As Ci sp]
+34.8 +18.7 39 +40 +40 очень
душно
1008.3 971.4 +36.6
21 20.05 ЮЗ 1 10 км 9/0
[Ac As Ci sp]
+32.4 +21.7 53 +41 +41 опасность
перегрева
1010.0 973.0
00 21.05 ЮЗ 1 10 км 9/0
[Ci sp]
+30.5 +22.6 63 +40 +40 очень
душно
1010.4 973.6
03 21.05 ЮЗ 2 10 км 9/0
[Ac As Ci sp]
+29.5 +22.3 65 +38 +38 очень
душно
1009.2 972.5
06 21.05 ЮЗ 2 15 км 9/0
[Ac As Ci sp]
+28.4 +23.6 75 +39 +39 очень
душно
1009.8 973.0 +28.4
09 21.05 ЮЗ 2 15 км 9/0
[Ac trans Ci sp]
+30.4 +21.0 57 +38 +43 очень
душно
1010.7 973.8
12 21.05 С 2 15 км 9/0
[Ci sp]
+36.0 +19.3 38 +41 +59 опасность
перегрева
1009.0 972.4
15 21.05 В 2 10 км 9/1 600 м
[Sc Ac trans Ci sp]
+39.9 +15.3 24 +41 +47 опасность
перегрева
1005.7 969.4
18 21.05 штиль 0 10 км 9/0
[Ac trans Ci sp]
+39.0 +14.8 24 +40 +40 очень
душно
1005.2 968.8 +40.7
21 21.05 ЮЗ 3 10 км 9/0
[Ci sp]
+35.7 +17.0 33 +39 +39 очень
душно
1006.5 970.0
00 22.05 ЮЗ 3 10 км 9/0
[Ci sp]
+33.0 +20.4 48 +40 +40 очень
душно
1007.0 970.6
03 22.05 Ю 5 10 км 9/0
[Ci sp]
+31.7 +21.2 54 +39 +39 очень
душно
1005.9 969.7
06 22.05 ЮЗ 2 10 км 9/0
[Ac trans Ci sp]
+30.9 +21.6 58 +39 +39 очень
душно
1007.1 970.8 +30.9
09 22.05 ЮЗ 3 15 км 9/0
[Ci sp]
+34.0 +20.6 46 +41 +48 опасность
перегрева
1008.1 971.6
12 22.05 ЮЗ 2 15 км 9/0
[Ci sp]
+38.0 +18.4 32 +42 +60 опасность
перегрева
1006.4 970.1
15 22.05 ЮЗ 2 15 км 9/1 600 м
[Sc Ci sp]
+40.9 +15.5 23 +42 +51 опасность
перегрева
1003.6 967.5
18 22.05 Ю 1 15 км 9/0
[Ci sp]
+39.5 +15.1 24 +41 +41 опасность
перегрева
1003.4 967.2 +41.5
21 22.05 Ю 2 10 км 9/0
[Ci sp]
+36.5 +19.1 36 +41 +41 опасность
перегрева
1005.3 969.0
00 23.05 Ю 3 10 км 9/0
[Ci sp]
+33.3 +21.1 49 +41 +41 опасность
перегрева
1004.9 968.7
03 23.05 Ю 3 10 км 9/0
[Ci sp]
+31.8 +23.1 60 +42 +42 опасность
перегрева
1004.7 968.5
06 23.05 Ю 2 15 км 9/0
[Ci sp]
+30.7 +22.8 63 +41 +41 опасность
перегрева
1006.1 969.7 +30.7
09 23.05 ЮЗ 5 15 км 9/0
[Ci sp]
+32.8 +23.0 56 +43 +47 опасность
перегрева
1007.9 971.5
12 23.05 ЮЗ 5 15 км 9/0
[Ci sp]
+35.6 +22.6 47 +45 +54 опасность
перегрева
1007.2 970.8
15 23.05 ЮЗ 4 15 км 9/0
[Ci sp]
+38.0 +19.8 35 +43 +50 опасность
перегрева
1005.0 968.7
18 23.05 ЮЗ 2 15 км 9/0
[Ac As Ci sp]
+37.7 +16.7 29 +40 +40 очень
душно
1003.9 967.6 +38.7
21 23.05 ЮЗ 3 10 км 9/0
[Ac As Ci sp]
+35.0 +18.6 38 +39 +39 очень
душно
1006.0 969.5
00 24.05 ЮЗ 5 10 км зарница 9/1 1200 м
[Cb cap Ac As Ci sp]
+33.9 +21.2 48 +42 +42 опасность
перегрева
1006.3 970.0
03 24.05 ЮВ 6 10 км гроза, ливневой дождь 10/3 1200 м
[Cb cap Ac As]
+24.0 +21.0 83 +30 +30 очень
душно
1011.2 974.3

 

Местоположение метеостанции Ouahigouya (Буркина-Фасо): широта 13.57 долгота -2.42 высота над уровнем моря 336 м.

В архиве по умолчанию представлена погода в Ouahigouya за последнюю неделю. Архивные данные за месяц целиком и за предыдущие месяцы, начиная с января 2011 года, Вы можете получить, выбрав интересующий диапазон дат из раскрывающегося списка и нажав кнопку "Ввод!".

Внимание! Время в таблицах - всемирное. Для получения местного времени необходимо прибавить поправку, которая в Ouahigouya равна 0 ч.

Смотрите также архив погоды в соседних городах и на ближайших метеорологических станциях:

Погода в Ouagadougou (Буркина-Фасо) (167 км)
Погода в Dedougou (Буркина-Фасо) (168 км)
Погода в Mopti (Мали) (210 км)
Погода в Boromo (Буркина-Фасо) (210 км)
Погода в San (Мали) (262 км)
Погода в Dori (Буркина-Фасо) (263 км)
Погода в Po (Буркина-Фасо) (302 км)
Погода в Navrongo (Гана) (330 км)
Погода в Bobo-Dioulasso (Буркина-Фасо) (337 км)
Погода в Fada N`Gourma (Буркина-Фасо) (348 км)

Пояснения к столбцам:

Ветер - указаны скорость ветра в м/с - средняя за 10 мин, порывы в срок и между сроками (в фигурных скобках) и направление, откуда дует ветер: С - северный, СВ - северо-восточный, В - восточный, ЮВ - юго-восточный, Ю - южный, ЮЗ - юго-западный, З - западный, СЗ - северо-западный.
Видимость - горизонтальная дальность видимости в метрах или километрах. При видимости от 1 до 10 км при отсутствии осадков обычно наблюдается дымка, при ухудшении видимости до 1 км и менее - туман. В сухую погоду видимость может ухудшаться дымом, пылью или мглою.
Явления - указаны атмосферные явления, наблюдавшиеся в срок или в последний час перед сроком; фигурными скобками обозначены явления, наблюдавшиеся между сроками (за 1-3 часа до срока); квадратными скобками обозначены град или гололедные отложения с указанием их диаметра в мм.
Облачность - указаны через наклонную черту общая и нижняя облачность в баллах и высота нижней границы облаков в метрах; квадратными скобками обозначены формы облаков: Ci - перистые, Cs - перисто-слоистые, Cc - перисто-кучевые, Ac - высококучевые, As - высокослоистые, Sc - слоисто-кучевые, Ns - слоисто-дождевые, Cu - кучевые, Cb - кучево-дождевые. Подробнее классификацию облаков см. в Атласе облаков (PDF).
T - Температура воздуха - температура, измеренная на высоте 2 м над землей.
Td - Температура точки росы - температура, при понижении до которой содержащийся в воздухе водяной пар достигнет насыщения.
f - Относительная влажность воздуха - влажноcть воздуха, измеренная на высоте 2 м над землей.
Te - Эффективная температура - температура, которую ощущает одетый по сезону человек в тени. Характеристика душности погоды. При расчете учитывается влияние влажности воздуха и скорости ветра на теплоощущения человека.
Tes - Эффективная температура на солнце - температура, которую ощущает человек, с поправкой на солнечный нагрев. Характеристика знойности погоды. Зависит от высоты солнца над горизонтом, облачности и скорости ветра. Ночью, в пасмурную погоду, а также при ветре 12 м/с и более поправка равна нулю.
P - Атмосферное давление - приведенное к уровню моря атмосферное давление.
Po - Атмосферное давление - измеренное на уровне метеостанции атмосферное давление.
Tmin - Минимальная температура - минимум температуры воздуха на высоте 2 м над землей.
Tmax - Максимальная температура - максимум температуры воздуха на высоте 2 м над землей.
R - Количество осадков - Количество выпавших осадков за период времени, мм. При наведении курсора мыши на число - период времени, за который выпало указанное количество осадков.
R24 - Количество осадков - Количество выпавших осадков за 24 часа, мм.
S - Снежный покров - Высота снежного покрова, см. При наведении курсора мыши на число - состояние снежного покрова и степень покрытия местности в баллах.